Location: Unspecified
(35.6961°N, 0.0000°E)
Time: 01:37:51
(UTC+00:00)

Vanguard 3 - Pass Details

Date: 03 June 2019
Orbit: 508 x 3263 km, 33.3° (Epoch: 24 June)

Event Time Altitude Azimuth Distance (km) Brightness Sun altitude
Rises 22:18:53 0° 274° (W) 3,300 10.7 -27.4°
Reaches altitude 10° 22:21:01 10° 267° (W) 2,594 10.0 -27.5°
Enters shadow 22:25:58 41° 214° (SW) 1,702 8.4 -28.0°
Maximum altitude 22:26:53 42° 197° (SSW) 1,745 - -28.0°
Drops below altitude 10° 22:36:53 10° 132° (SE) 4,392 - -28.8°
Sets 22:41:40 0° 127° (SE) 5,867 - -29.2°
